Location: Newark
(54.0500°N, 12.8333°E)
Time: 18:04:14
(UTC+00:00)

Explorer 7 - All Passes

Search period start: 27 January 2020 00:00
Search period end: 06 February 2020 00:00
Orbit: 485 x 679 km, 50.3° (Epoch: 27 January)

Date Brightness Start Highest point End Pass type
(mag) Time Alt. Az. Time Alt. Az. Time Alt. Az.
27 Jan - 00:24:18 10° WSW 00:27:56 47° S 00:31:38 10° ESE night (unlit)
27 Jan - 02:04:41 10° W 02:07:58 27° SSW 02:11:19 10° SE night (unlit)
27 Jan - 21:09:58 10° SSW 21:12:46 20° SSE 21:15:33 10° ESE night (unlit)
27 Jan - 22:49:05 10° WSW 22:52:39 42° S 22:56:15 10° E night (unlit)
28 Jan - 00:29:11 10° W 00:32:46 44° S 00:36:26 10° ESE night (unlit)
28 Jan - 02:09:46 10° W 02:12:42 21° SSW 02:15:42 10° SSE night (unlit)
28 Jan - 21:14:18 10° SSW 21:17:30 26° SSE 21:20:40 10° E night (unlit)
28 Jan - 22:53:52 10° WSW 22:57:30 47° S 23:01:08 10° E night (unlit)
29 Jan - 00:34:05 10° W 00:37:36 38° SSW 00:41:11 10° SE night (unlit)
29 Jan - 02:15:02 10° WSW 02:17:24 16° SW 02:19:48 10° S night (unlit)
29 Jan - 19:41:14 10° SSE 19:42:36 12° SE 19:43:59 10° ESE night (unlit)
29 Jan - 21:18:51 10° SW 21:22:16 32° SSE 21:25:39 10° E night (unlit)
29 Jan - 22:58:42 10° WSW 23:02:20 48° S 23:06:00 10° ESE night (unlit)
30 Jan - 00:39:02 10° W 00:42:24 31° SSW 00:45:49 10° SE night (unlit)
30 Jan - 02:20:54 10° WSW 02:22:04 11° SW 02:23:13 10° SSW night (unlit)
30 Jan - 19:44:48 10° S 19:47:16 16° SSE 19:49:42 10° ESE night (unlit)
30 Jan - 21:23:31 10° SW 21:27:04 39° SSE 21:30:36 10° E night (unlit)
30 Jan - 23:03:34 10° W 23:07:11 46° S 23:10:49 10° ESE night (unlit)
31 Jan - 00:44:02 10° W 00:47:10 25° SSW 00:50:20 10° SSE night (unlit)
31 Jan - 19:48:57 10° SSW 19:51:58 22° SSE 19:54:56 10° E night (unlit)
31 Jan - 21:28:16 10° WSW 21:31:54 44° S 21:35:29 10° E night (unlit)
31 Jan - 23:08:27 10° W 23:12:01 42° SSW 23:15:36 10° ESE night (unlit)
01 Feb - 00:49:10 10° WSW 00:51:53 19° SSW 00:54:39 10° SSE night (unlit)
01 Feb - 19:53:23 10° SW 19:56:43 28° SSE 19:59:59 10° E night (unlit)
01 Feb - 21:33:04 10° WSW 21:36:45 47° S 21:40:22 10° ESE night (unlit)
01 Feb - 23:13:22 10° W 23:16:50 36° SSW 23:20:19 10° SE night (unlit)
02 Feb - 00:54:34 10° WSW 00:56:34 14° SW 00:58:35 10° S night (unlit)
02 Feb - 18:19:48 10° S 18:21:45 13° SE 18:23:42 10° ESE visible
02 Feb - 19:57:57 10° SW 20:01:30 35° SSE 20:04:57 10° E visible
02 Feb - 21:37:55 10° WSW 21:41:35 48° S 21:45:13 10° ESE night (unlit)
02 Feb - 23:18:19 10° W 23:21:37 29° SSW 23:24:55 10° SE night (unlit)
03 Feb - 18:23:40 10° SSW 18:26:26 19° SSE 18:29:09 10° ESE visible
03 Feb - 20:02:39 10° WSW 20:06:18 41° SSE 20:09:52 10° E visible
03 Feb - 21:42:47 10° W 21:46:26 45° S 21:50:02 10° ESE night (unlit)
03 Feb - 23:23:22 10° W 23:26:22 23° SSW 23:29:23 10° SSE night (unlit)
04 Feb - 18:27:55 10° SSW 18:31:10 24° SSE 18:34:18 10° E visible
04 Feb - 20:07:25 10° WSW 20:11:08 46° S 20:14:46 10° E visible
04 Feb - 21:47:41 10° W 21:51:15 40° SSW 21:54:47 10° ESE night (unlit)
04 Feb - 23:28:33 10° WSW 23:31:04 17° SSW 23:33:35 10° S night (unlit)
05 Feb - 16:55:11 10° SSE 16:56:15 11° SE 16:57:19 10° SE visible
05 Feb - 18:32:24 10° SW 18:35:55 31° SSE 18:39:19 10° E visible
05 Feb - 20:12:15 10° WSW 20:15:59 48° S 20:19:37 10° ESE visible
05 Feb - 21:52:36 10° W 21:56:03 33° SSW 21:59:29 10° SE night (unlit)
05 Feb - 23:34:09 10° WSW 23:35:44 12° SW 23:37:18 10° SSW night (unlit)
